Location: Abundant Grace Fellowship
(35.0349°N, 90.0924°W)
Time: 14:59:46
(UTC+00:00)

Cosmos 1697 Rocket - Pass Details

Date: 18 January 2026
Orbit: 830 x 844 km, 71.0° (Epoch: 17 February)

Event Time Altitude Azimuth Distance (km) Brightness Sun altitude
Rises 00:19:43 0° 353° (N) 3,403 5.8 -13.4°
Reaches altitude 10° 00:22:50 10° 10° (N) 2,466 4.9 -14.0°
Maximum altitude 00:26:58 21° 57° (ENE) 1,833 3.9 -14.9°
Enters shadow 00:27:00 21° 58° (ENE) 1,833 3.9 -14.9°
